www.pogodaiklimat.ru

Погода и климат >> Архив погоды >> Индонезия >> Бима


ПОГОДА в Биме

  • Прогноз погоды в Биме
  • Монитор погоды в Биме

АРХИВ ПОГОДЫ в Биме

Время (UTC), дата Ветер
(напр.,м/с)
 
Видим.   Явления Облачность Т
(С)
Тd
(С)
f
(%)
Тe
(С)
Тes
(С)
Комфортность P
(гПа)
Po
(гПа)
Тmin
(С)
Tmax
(С)
R
(мм)
R24
(мм)
S
(см)
00 17.01 штиль 0 6000 м 8/5 450 м
[Cu Sc As trans Ci fib]
+25.4 +24.3 94 +35 +38 очень
душно
1009.3 1009.0 +24.6 14
03 17.01 С 3 8000 м осадки на расстоянии 10/5 450 м
[Cu med, cong As trans]
+29.2 +24.9 78 +42 +46 опасность
перегрева
1009.5 1009.2
06 17.01 С 4 7000 м осадки на расстоянии 10/6 420 м
[Cu med, cong As op]
+28.8 +25.3 81 +42 +43 опасность
перегрева
1007.5 1007.2
09 17.01 С 4 3000 м слаб. дождь 10/8 450 м
[Cu med, cong As op]
+28.0 +23.9 78 +39 +39 очень
душно
1007.3 1007.0 0.0
12 17.01 штиль 0 6000 м осадки на расстоянии 9/6 450 м
[Cu med, cong As op Ci fib]
+25.2 +24.7 97 +35 +35 очень
душно
1009.2 1008.9 +29.6 14
15 17.01 штиль 0 5000 м мгла 9/4 450 м
[Cu hum Ac As Ci fib]
+25.0 +24.2 95 +34 +34 очень
душно
1010.0 1009.7
18 17.01 штиль 0 5000 м осадки на расстоянии 10/6 450 м
[Cu med, cong As op]
+25.0 +24.5 97 +35 +35 очень
душно
1008.0 1007.7
21 17.01 штиль 0 5000 м мгла 6/3 450 м
[Cu hum As trans Ci fib]
+24.6 +23.8 95 +33 +33 очень
душно
1007.5 1007.2
00 18.01 штиль 0 7000 м 9/3 420 м
[Cu hum Ac As Ci fib]
+25.2 +24.1 94 +35 +38 очень
душно
1009.0 1008.7 +24.6 14
03 18.01 СЗ 3 10 км осадки на расстоянии 9/5 450 м
[Cu Sc Ac As Ci fib]
+29.6 +25.3 78 +43 +49 опасность
перегрева
1008.6 1008.2
06 18.01 С 3 8000 м 9/5 450 м
[Cu med, cong Ac As Ci fib]
+31.0 +24.2 67 +43 +47 опасность
перегрева
1006.7 1006.4
09 18.01 С 3 3000 м осадки на расстоянии 10/8 420 м
[Cu med, cong As op]
+28.6 +23.7 75 +39 +39 очень
душно
1006.5 1006.2
12 18.01 штиль 0 6000 м 9/5 420 м
[Cu med, cong Ac As Ci fib]
+25.4 +23.5 89 +34 +34 очень
душно
1008.7 1008.4 +31.4
15 18.01 штиль 0 5000 м осадки на расстоянии 10/8 420 м
[Cu med, cong As op]
+25.2 +24.1 94 +35 +35 очень
душно
1009.9 1009.5
18 18.01 штиль 0 5000 м осадки на расстоянии 10/8 420 м
[Cu med, cong As op]
+25.2 +24.1 94 +35 +35 очень
душно
1008.5 1008.2
21 18.01 штиль 0 5000 м осадки на расстоянии 10/8 420 м
[Cu med, cong As op]
+25.0 +24.2 95 +34 +34 очень
душно
1008.1 1007.8
00 19.01 штиль 0 7000 м 8/4 420 м
[Cu hum Ac As Ci fib]
+26.0 +24.6 92 +37 +40 очень
душно
1010.1 1009.7 +25.0
03 19.01 штиль 0 7000 м 8/4 420 м
[Cu hum Ac As Ci fib]
+28.8 +24.7 79 +41 +52 опасность
перегрева
1009.6 1009.3
06 19.01 С 3 8000 м 8/4 450 м
[Cu med, cong As op Ci fib]
+31.0 +24.2 67 +43 +48 опасность
перегрева
1006.9 1006.5
09 19.01 СЗ 3 8000 м 5/4 450 м
[Cu med, cong Ac trans Ci fib]
+31.0 +25.1 71 +45 +46 опасность
перегрева
1006.7 1006.4
12 19.01 В 2 6000 м в посл. час дождь 8/5 450 м
[Cu med, cong As trans Ci fib]
+27.0 +23.1 79 +36 +36 очень
душно
1008.4 1008.1 +31.8 0.0
15 19.01 штиль 0 6000 м 5/3 450 м
[Cu hum As trans Ci fib]
+26.4 +25.0 92 +38 +38 очень
душно
1010.0 1009.7
18 19.01 штиль 0 6000 м 5/3 450 м
[Cu hum As trans Ci fib]
+25.8 +24.7 94 +37 +37 очень
душно
1008.7 1008.3
21 19.01 штиль 0 6000 м 5/3 450 м
[Cu hum As trans Ci fib]
+25.2 +24.4 95 +35 +35 очень
душно
1007.9 1007.6
00 20.01 штиль 0 5000 м мгла 8/4 420 м
[Cu hum As trans Ci fib]
+26.2 +24.8 92 +37 +40 очень
душно
1009.5 1009.2 +24.6 0.0
03 20.01 ЮЗ 2 10 км 5/4 450 м
[Cu med, cong Ci fib]
+31.4 +25.0 69 +45 +56 опасность
перегрева
1008.7 1008.4
06 20.01 С 5 7000 м осадки на расстоянии 8/5 450 м
[Cu med, cong As trans Ci fib]
+31.4 +25.2 70 +45 +48 опасность
перегрева
1007.2 1006.9
09 20.01 В 3 3000 м слаб. ливневой дождь, в посл. час гроза 10/8 420 м
[Cb cap As op]
+26.0 +24.4 91 +36 +36 очень
душно
1007.5 1007.2 4
12 20.01 штиль 0 5000 м осадки на расстоянии 10/8 420 м
[Cu Sc As op]
+25.6 +24.2 92 +35 +35 очень
душно
1008.9 1008.6 +32.4 3
15 20.01 штиль 0 6000 м 8/5 450 м
[Cu Sc As op Ci fib]
+25.2 +24.4 95 +35 +35 очень
душно
1009.9 1009.6
18 20.01 штиль 0 6000 м 8/5 450 м
[Cu Sc As op Ci fib]
+25.0 +24.2 95 +34 +34 очень
душно
1007.9 1007.6
21 20.01 штиль 0 3000 м дымка 8/5 450 м
[Cu Sc As op Ci fib]
+24.6 +23.8 95 +33 +33 очень
душно
1007.6 1007.4
00 21.01 штиль 0 5000 м мгла 6/0 450 м
[Ac trans Ci fib]
+25.6 +24.8 95 +36 +41 очень
душно
1008.5 1008.0 +24.2 7
03 21.01 штиль 0 9000 м 8/5 450 м
[Cu Sc As trans Ci fib]
+30.4 +25.3 74 +44 +54 опасность
перегрева
1008.8 1008.3
06 21.01 Ю 4 10 км 9/6 450 м
[Cu med, cong As trans Ci fib]
+32.0 +24.7 65 +45 +48 опасность
перегрева
1005.7 1005.4
09 21.01 Ю 2 8000 м осадки на расстоянии 10/8 420 м
[Cb cap As op]
+29.0 +26.1 84 +44 +44 опасность
перегрева
1006.1 1005.7 3
12 21.01 штиль 0 6000 м осадки на расстоянии 8/4 420 м
[Cu hum Ac As Ci fib]
+27.6 +25.7 89 +41 +41 опасность
перегрева
1007.3 1007.0 +33.4 2
15 21.01 СВ 2 6000 м 8/4 420 м
[Cu hum Ac trans Ci fib]
+26.8 +25.5 93 +39 +39 очень
душно
1008.4 1008.0
18 21.01 штиль 0 6000 м 8/4 420 м
[Cu hum Ac As Ci fib]
+26.2 +25.4 95 +38 +38 очень
душно
1006.8 1006.5
21 21.01 штиль 0 6000 м 8/4 420 м
[Cu hum Ac As Ci fib]
+25.6 +24.8 95 +36 +36 очень
душно
1006.0 1005.7
00 22.01 штиль 0 8000 м 8/1 450 м
[Cu hum Ac As Ci fib]
+26.2 +25.4 95 +38 +42 очень
душно
1007.6 1007.3 +24.8 5
03 22.01 Ю 3 8000 м 9/5 450 м
[Cu Sc As op Ci fib]
+29.8 +25.5 78 +44 +49 опасность
перегрева
1007.8 1007.5
06 22.01 СЗ 2 9000 м 9/5 450 м
[Cu Sc As op Ci fib]
+31.2 +25.0 70 +45 +50 опасность
перегрева
1005.9 1005.6
09 22.01 С 3 8000 м 9/4 450 м
[Cu hum Ac As Ci fib]
+28.0 +25.0 84 +40 +41 очень
душно
1005.3 1005.0
12 22.01 штиль 0 1000 м дождь {гроза} 10/8 420 м
[Cb cap As op]
+25.2 +24.7 97 +35 +35 очень
душно
1007.8 1007.5 +33.4 14
15 22.01 штиль 0 5000 м осадки на расстоянии 10/8 450 м
[Cu med, cong As op]
+25.6 +24.5 94 +36 +36 очень
душно
1008.5 1008.2 3
18 22.01 штиль 0 5000 м осадки на расстоянии 10/8 450 м
[Cu med, cong As op]
+26.2 +24.8 92 +37 +37 очень
душно
1007.1 1006.8 3
21 22.01 штиль 0 3000 м слаб. дождь 10/8 450 м
[Cu med, cong Ac As]
+24.8 +24.0 95 +34 +34 очень
душно
1007.7 1007.4 6
00 23.01 штиль 0 6000 м осадки на расстоянии 10/8 300 м
[Cb cap As op]
+26.0 +23.2 85 +35 +35 очень
душно
1009.1 1008.8 +24.2 28
03 23.01 штиль 0 7000 м слаб. дождь 10/8 420 м
[Cb cap As op]
+27.6 +24.3 82 +39 +40 очень
душно
1008.7 1008.4 0.0
06 23.01 штиль 0 7000 м слаб. дождь 10/8 420 м
[Cb cap As op]
+28.8 +23.9 75 +40 +41 очень
душно
1007.3 1007.0 0.4
09 23.01 штиль 0 8000 м осадки на расстоянии 10/8 450 м
[Cu med, cong As op]
+29.0 +23.5 72 +39 +39 очень
душно
1006.6 1006.3 0.2
12 23.01 штиль 0 6000 м осадки на расстоянии 8/6 450 м
[Cu Sc As trans]
+27.6 +23.8 80 +38 +38 очень
душно
1007.6 1007.3 +32.6 0.2
15 23.01 штиль 0 6000 м 9/6 450 м
[Cu Sc As trans Ci fib]
+27.8 +22.8 74 +37 +37 очень
душно
1008.8 1008.5
18 23.01 штиль 0 6000 м {дождь} 9/6 450 м
[Cu Sc As trans Ci fib]
+26.6 +23.3 82 +36 +36 очень
душно
1006.7 1006.4 0.0
21 23.01 штиль 0 6000 м 9/6 450 м
[Cu Sc As trans Ci fib]
+27.2 +23.1 78 +36 +36 очень
душно
1006.5 1006.2

 

Местоположение метеостанции Бима (Индонезия): широта -8.55 долгота 118.70 высота над уровнем моря 2 м.

В архиве по умолчанию представлена погода в Биме за последнюю неделю. Архивные данные за месяц целиком и за предыдущие месяцы, начиная с января 2011 года, Вы можете получить, выбрав интересующий диапазон дат из раскрывающегося списка и нажав кнопку "Ввод!".


*Определитесь, кто Вы:
робот инопланетянин человек

Внимание! Время в таблицах - всемирное. Для получения местного времени необходимо прибавить поправку, которая равна 8 ч.

Смотрите также архив погоды в соседних городах и на ближайших метеорологических станциях:

Погода в Сумбава-Бесаре (Индонезия) (142 км)
Погода в Рутенге (Индонезия) (193 км)
Погода в Аэропорту Умбу Механг Кунда (Индонезия) (218 км)
Погода в Матараме (Индонезия) (290 км)
Погода в Денпасаре (Индонезия) (390 км)
Погода в Маумере (Индонезия) (391 км)
Погода в Аэропорту Султана Хасануддин (Индонезия) (398 км)
Погода в Уджангпанданге (Индонезия) (398 км)
Погода в Сабу (Индонезия) (406 км)
Погода в Ларантуке (Индонезия) (471 км)

Пояснения к столбцам:

Ветер - указаны скорость ветра в м/с - средняя за 10 мин, порывы в срок и между сроками (в фигурных скобках) и направление, откуда дует ветер: С - северный, СВ - северо-восточный, В - восточный, ЮВ - юго-восточный, Ю - южный, ЮЗ - юго-западный, З - западный, СЗ - северо-западный.
Видимость - горизонтальная дальность видимости в метрах или километрах. При видимости от 1 до 10 км при отсутствии осадков обычно наблюдается дымка, при ухудшении видимости до 1 км и менее - туман. В сухую погоду видимость может ухудшаться дымом, пылью или мглою.
Явления - указаны атмосферные явления, наблюдавшиеся в срок или в последний час перед сроком; фигурными скобками обозначены явления, наблюдавшиеся между сроками (за 1-3 часа до срока); квадратными скобками обозначены град или гололедные отложения с указанием их диаметра в мм.
Облачность - указаны через наклонную черту общая и нижняя облачность в баллах и высота нижней границы облаков в метрах; квадратными скобками обозначены формы облаков: Ci - перистые, Cs - перисто-слоистые, Cc - перисто-кучевые, Ac - высококучевые, As - высокослоистые, Sc - слоисто-кучевые, Ns - слоисто-дождевые, Cu - кучевые, Cb - кучево-дождевые. Подробнее классификацию облаков см. в Атласе облаков (PDF).
T - Температура воздуха - температура, измеренная на высоте 2 м над землей.
Td - Температура точки росы - температура, при понижении до которой содержащийся в воздухе водяной пар достигнет насыщения.
f - Относительная влажность воздуха - влажноcть воздуха, измеренная на высоте 2 м над землей.
Te - Эффективная температура - температура, которую ощущает одетый по сезону человек в тени. Характеристика душности погоды. При расчете учитывается влияние влажности воздуха и скорости ветра на теплоощущения человека.
Tes - Эффективная температура на солнце - температура, которую ощущает человек, с поправкой на солнечный нагрев. Характеристика знойности погоды. Зависит от высоты солнца над горизонтом, облачности и скорости ветра. Ночью, в пасмурную погоду, а также при ветре 12 м/с и более поправка равна нулю.
P - Атмосферное давление - приведенное к уровню моря атмосферное давление.
Po - Атмосферное давление - измеренное на уровне метеостанции атмосферное давление.
Tmin - Минимальная температура - минимум температуры воздуха на высоте 2 м над землей.
Tmax - Максимальная температура - максимум температуры воздуха на высоте 2 м над землей.
R - Количество осадков - Количество выпавших осадков за период времени, мм. При наведении курсора мыши на число - период времени, за который выпало указанное количество осадков.
R24 - Количество осадков - Количество выпавших осадков за 24 часа, мм.
S - Снежный покров - Высота снежного покрова, см. При наведении курсора мыши на число - состояние снежного покрова и степень покрытия местности в баллах.